Rockwall, TX

3:22 AM CST on December 07, 2019 (GMT -0600)
Rockwall

Weather History for KF46 - November, 2019

Change the Weather History Date:

Tuesday, November 19, 2019

  Actual Average (WUND) Record (WUND)
Temperature  
Mean Temperature 62 °F -  
Max Temperature 78 °F - - (-1)
Min Temperature 46 °F - - (-1)
Degree Days  
Heating Degree Days 3    
Growing Degree Days 12 (Base 50)    
Moisture  
Dew Point 43 °F    
Average Humidity 52    
Maximum Humidity 75    
Minimum Humidity 27    
Precipitation  
Precipitation 0.00 in - - ()
Sea Level Pressure  
Sea Level Pressure 29.94 in    
Wind  
Wind Speed 5 mph ()    
Max Wind Speed 10 mph    
Max Gust Speed -    
Visibility 10.0 miles    
Events      
Averages and records for this station are not official NWS values.
T = Trace of Precipitation, MM = Missing Value Source: Averaged Metar Reports

Daily Weather History Graph

Daily Weather History Graph

Search for Another Location

Airport or City:

Astronomy

Nov. 19, 2019 Rise Set
Actual Time 6:59 AM CST 5:22 PM CST
Civil Twilight 6:33 AM CST 5:48 PM CST
Nautical Twilight 6:03 AM CST 6:18 PM CST
Astronomical Twilight 5:33 AM CST 6:48 PM CST
Moon No Moon Rise 1:12 PM CST (11/19)
Length of Visible Light 11h 15m
Length of Day
10h 22m
Waning Gibbous, 51% of the Moon is Illuminated
Nov 19
Waning Gibbous
Nov 19
Last Quarter
Nov 26
New
Dec 4
First Quarter
Dec 11
Full

Hourly Weather History & Observations

Time (CST) Temp. Windchill Dew Point Humidity Pressure Visibility Wind Dir Wind Speed Gust Speed Precip Events Conditions
12:15 AM 52.2 °F - 38.3 °F 59% 29.93 in 10.0 mi SSW 3.5 mph - N/A   Clear
12:55 AM 51.8 °F - 38.1 °F 60% 29.93 in 10.0 mi SSW 4.6 mph - N/A   Clear
1:15 AM 51.8 °F - 37.9 °F 59% 29.93 in 10.0 mi South 5.8 mph - N/A   Clear
1:35 AM 51.1 °F - 37.9 °F 61% 29.92 in 10.0 mi South 4.6 mph - N/A   Clear
1:55 AM 49.8 °F - 37.9 °F 64% 29.92 in 10.0 mi South 5.8 mph - N/A   Clear
2:15 AM 50.0 °F - 37.9 °F 63% 29.92 in 10.0 mi South 4.6 mph - N/A   Clear
2:35 AM 49.1 °F - 37.9 °F 65% 29.93 in 10.0 mi South 5.8 mph - N/A   Clear
3:15 AM 48.4 °F - 37.9 °F 67% 29.93 in 10.0 mi South 3.5 mph - N/A   Clear
3:35 AM 48.4 °F - 37.9 °F 67% 29.93 in 10.0 mi South 3.5 mph - N/A   Clear
3:55 AM 48.2 °F - 38.3 °F 69% 29.93 in 10.0 mi South 4.6 mph - N/A   Clear
4:15 AM 48.7 °F - 38.5 °F 68% 29.93 in 10.0 mi South 3.5 mph - N/A   Clear
4:35 AM 49.6 °F - 38.7 °F 66% 29.92 in 10.0 mi South 5.8 mph - N/A   Clear
5:00 AM 48.4 °F - 38.5 °F 69% 29.93 in 10.0 mi South 5.8 mph - N/A   Clear
5:15 AM 47.5 °F - 38.3 °F 70% 29.94 in 10.0 mi South 5.8 mph - N/A   Clear
5:35 AM 46.9 °F - 38.5 °F 72% 29.94 in 10.0 mi South 4.6 mph - N/A   Clear
5:55 AM 46.6 °F - 38.3 °F 73% 29.94 in 10.0 mi South 4.6 mph - N/A   Clear
6:15 AM 46.4 °F 44.3 °F 38.7 °F 74% 29.95 in 10.0 mi South 4.6 mph - N/A   Clear
6:35 AM 46.6 °F - 38.8 °F 74% 29.95 in 10.0 mi South 4.6 mph - N/A   Clear
6:55 AM 46.4 °F 44.3 °F 38.7 °F 74% 29.97 in 10.0 mi South 4.6 mph - N/A   Clear
7:15 AM 46.6 °F - 39.0 °F 75% 29.98 in 10.0 mi South 3.5 mph - N/A   Clear
7:35 AM 47.1 °F - 39.6 °F 75% 29.98 in 10.0 mi Calm Calm - N/A   Clear
7:55 AM 49.1 °F - 40.6 °F 73% 29.99 in 10.0 mi Calm Calm - N/A   Clear
8:15 AM 52.5 °F - 42.1 °F 68% 30.00 in 10.0 mi SSW 3.5 mph - N/A   Clear
8:35 AM 55.4 °F - 43.0 °F 63% 30.00 in 10.0 mi South 3.5 mph - N/A   Clear
8:55 AM 57.6 °F - 43.2 °F 59% 30.01 in 10.0 mi SSW 3.5 mph - N/A   Clear
9:15 AM 59.9 °F - 42.3 °F 52% 30.00 in 10.0 mi Calm Calm - N/A   Clear
9:35 AM 61.3 °F - 42.8 °F 51% 30.01 in 10.0 mi Calm Calm - N/A   Clear
9:55 AM 64.0 °F - 42.3 °F 45% 30.01 in 10.0 mi Calm Calm - N/A   Clear
10:35 AM 69.8 °F - 42.6 °F 37% 30.00 in 10.0 mi NNW 5.8 mph - N/A   Clear
10:55 AM 71.1 °F - 43.0 °F 36% 30.00 in 10.0 mi North 4.6 mph - N/A   Clear
11:15 AM 71.8 °F - 44.6 °F 38% 29.99 in 10.0 mi North - - N/A   Clear
11:35 AM 73.9 °F - 45.0 °F 35% 29.99 in 10.0 mi NE 6.9 mph - N/A   Clear
11:55 AM 74.7 °F - 45.1 °F 35% 29.97 in 7.0 mi North - - N/A   Clear
12:15 PM 75.6 °F - 45.0 °F 34% 29.97 in 10.0 mi East 5.8 mph - N/A   Clear
12:35 PM 76.5 °F - 44.8 °F 32% 29.96 in 10.0 mi East 5.8 mph - N/A   Clear
1:15 PM 77.9 °F - 43.3 °F 29% 29.93 in 10.0 mi East 5.8 mph - N/A   Clear
1:35 PM 78.8 °F - 43.9 °F 29% 29.93 in 10.0 mi SE 5.8 mph - N/A   Clear
1:55 PM 78.6 °F - 43.7 °F 29% 29.93 in 10.0 mi SE 8.1 mph - N/A   Clear
2:15 PM 78.8 °F - 44.6 °F 30% 29.93 in 10.0 mi SE 8.1 mph - N/A   Clear
2:35 PM 78.3 °F - 43.9 °F 29% 29.92 in 10.0 mi SE 8.1 mph - N/A   Clear
2:55 PM 78.8 °F - 44.6 °F 30% 29.92 in 10.0 mi SE 4.6 mph - N/A   Clear
3:15 PM 78.8 °F - 42.3 °F 27% 29.92 in 10.0 mi SE 5.8 mph - N/A   Clear
3:35 PM 78.8 °F - 42.3 °F 27% 29.91 in 10.0 mi SSE 8.1 mph - N/A   Clear
3:55 PM 78.3 °F - 41.7 °F 27% 29.92 in 10.0 mi SSE 10.4 mph - N/A   Clear
4:15 PM 76.8 °F - 41.7 °F 28% 29.92 in 10.0 mi SSE 6.9 mph - N/A   Clear
4:35 PM 76.3 °F - 42.6 °F 30% 29.92 in 10.0 mi SSE 6.9 mph - N/A   Clear
4:55 PM 74.1 °F - 42.4 °F 32% 29.92 in 10.0 mi SE 5.8 mph - N/A   Clear
5:15 PM 72.0 °F - 42.8 °F 35% 29.91 in 10.0 mi ESE 5.8 mph - N/A   Clear
5:35 PM 69.8 °F - 43.2 °F 38% 29.91 in 10.0 mi ESE 5.8 mph - N/A   Clear
5:55 PM 68.4 °F - 43.7 °F 41% 29.91 in 10.0 mi ESE 4.6 mph - N/A   Clear
6:15 PM 67.3 °F - 43.7 °F 42% 29.91 in 10.0 mi ESE 4.6 mph - N/A   Clear
6:35 PM 66.4 °F - 43.7 °F 44% 29.92 in 10.0 mi ESE 5.8 mph - N/A   Clear
6:55 PM 66.6 °F - 43.9 °F 44% 29.92 in 10.0 mi SE 8.1 mph - N/A   Clear
7:15 PM 66.9 °F - 44.2 °F 44% 29.92 in 10.0 mi SE 6.9 mph - N/A   Clear
7:35 PM 65.7 °F - 44.6 °F 47% 29.92 in 10.0 mi SE 8.1 mph - N/A   Clear
7:55 PM 64.6 °F - 44.8 °F 49% 29.93 in 10.0 mi SE 5.8 mph - N/A   Clear
8:15 PM 64.9 °F - 45.5 °F 49% 29.93 in 10.0 mi SE 8.1 mph - N/A   Clear
8:35 PM 64.8 °F - 46.4 °F 51% 29.93 in 10.0 mi SE 9.2 mph - N/A   Clear
8:55 PM 64.6 °F - 47.3 °F 53% 29.93 in 10.0 mi SE 6.9 mph - N/A   Clear
9:15 PM 64.4 °F - 47.5 °F 54% 29.94 in 10.0 mi SSE 6.9 mph - N/A   Clear
9:35 PM 63.1 °F - 47.8 °F 57% 29.95 in 10.0 mi SSE 5.8 mph - N/A   Clear
9:55 PM 62.8 °F - 48.2 °F 59% 29.96 in 10.0 mi SSE 8.1 mph - N/A   Clear
10:15 PM 62.6 °F - 48.2 °F 59% 29.96 in 10.0 mi SSE 8.1 mph - N/A   Clear
10:55 PM 60.6 °F - 48.6 °F 64% 29.94 in 10.0 mi SE 8.1 mph - N/A   Clear
11:15 PM 60.4 °F - 49.1 °F 66% 29.95 in 10.0 mi SSE 5.8 mph - N/A   Clear
11:35 PM 60.8 °F - 49.3 °F 66% 29.95 in 10.0 mi SSE 6.9 mph - N/A   Clear
11:55 PM 60.3 °F - 49.5 °F 68% 29.95 in 10.0 mi SSE 8.1 mph - N/A   Clear